Location: Squirrel Cove
(50.1074°N, 124.9139°W)
Time: 00:58:12
(UTC-08:00)

BlueWalker 3 - Pass Details

Date: 30 November 2022
Orbit: 499 x 517 km, 53.2° (Epoch: 29 January)

Event Time Altitude Azimuth Distance (km) Brightness Sun altitude
Rises 18:00:40 0° 266° (W) 2,630 7.3 -15.3°
Reaches altitude 10° 18:02:55 10° 270° (W) 1,740 5.9 -15.7°
Maximum altitude 18:06:48 58° 351° (N) 603 2.2 -16.3°
Enters shadow 18:08:17 34° 54° (NE) 865 2.6 -16.5°
